Location: Napier
(39.4830°S, 176.9170°E)
Time: 03:24:45
(UTC+12:00)

CZ-4 R/B - Pass Details

Date: 15 August 2020
Orbit: 580 x 589 km, 97.8° (Epoch: 20 September)

Event Time Altitude Azimuth Distance (km) Brightness Sun altitude
Exits shadow 19:18:21 30° 155° (SSE) 1,083 5.5 -20.6°
Maximum altitude 19:20:20 69° 79° (E) 644 4.3 -20.9°
Drops below altitude 10° 19:24:30 10° 355° (N) 1,922 7.1 -21.8°
Sets 19:26:39 0° 352° (N) 2,814 8.0 -22.2°
